Location: Mainz-Finthen
(49.9906°N, 8.1713°E)
Time: 19:23:07
(UTC+00:00)

Envisat - Visible Passes

Search period start: 26 September 2021 00:00
Search period end: 06 October 2021 00:00
Orbit: 764 x 766 km, 98.2° (Epoch: 26 September)

Date Brightness Start Highest point End Pass type
(mag) Time Alt. Az. Time Alt. Az. Time Alt. Az.
26 Sep 5.9 03:22:22 10° NE 03:25:31 16° E 03:28:38 10° SE visible
27 Sep 4.0 04:23:16 10° NNE 04:28:15 52° E 04:33:12 10° S visible
28 Sep 5.3 03:46:54 10° NE 03:51:09 26° E 03:55:22 10° SSE visible
29 Sep 6.1 03:11:30 10° ENE 03:13:50 13° E 03:16:09 10° ESE visible
29 Sep 3.1 04:48:32 10° NNE 04:53:39 84° ESE 04:58:44 10° SSW visible
30 Sep 4.4 04:11:51 10° NNE 04:16:41 42° E 04:21:29 10° SSE visible
01 Oct 5.6 03:35:39 10° NE 03:39:31 21° E 03:43:21 10° SE visible
02 Oct 6.4 03:01:32 10° ENE 03:02:08 10° E 03:02:44 10° E visible
02 Oct 3.4 04:37:01 10° NNE 04:42:07 69° ESE 04:47:10 10° S visible
03 Oct 4.8 04:00:28 10° NNE 04:05:06 34° E 04:09:42 10° SSE visible
04 Oct 5.9 03:24:31 10° NE 03:27:52 17° E 03:31:11 10° SE visible
05 Oct 3.8 04:25:33 10° NNE 04:30:34 55° E 04:35:33 10° S visible
05 Oct 6.7 17:28:02 10° WSW 17:29:33 11° W 17:31:03 10° WNW visible
